Weather Roundup
Issued by NWS

Home | Current Version | Previous Version | Text Only | Print | Product List | Glossary On
Versions: 1 2 3 4 5 6 7 8 9 10 11 12 13 14 15 16 17 18 19 20 21 22 23 24 25 26 27 28 29 30 31 32 33 34 35 36 37 38 39 40 41 42 43 44 45 46 47 48 49 50
351
NZUS93 KARX 171859
HRRWXR

CURRENT HOURLY OBSERVATIONS ACROSS
MUCH OF THE UPPER MISSISSIPPI VALLEY
NATIONAL WEATHER SERVICE LA CROSSE WI
100 PM CST FRI NOV 17 2017


...SOUTHEAST MINNESOTA...


CITY           SKY/WX    TMP DP  RH WIND       PRES   REMARKS
ROCHESTER      CLOUDY    35  35 100 S18       29.61F FOG     WCI  24
ROCHESTER/MAYO CLOUDY    36  36 100 SE8G21    29.62F WCI  29
WINONA         CLOUDY    36  34  93 S5        29.66F FOG     WCI  32
AUSTIN         DRZL/FOG  36  36 100 S5        29.61F VSB 1   WCI  32
ALBERT LEA     DRZL/FOG  37  36  93 S6        29.60F VSB 3/4 WCI  33
DODGE CENTER   DRIZZLE   36  36 100 S14       29.60F WCI  27
PRESTON        CLOUDY    35  33  94 S12       29.63F FOG     WCI  27
OWATONNA       DRIZZLE   37  36  93 S8        29.61F WCI  31
FARIBAULT      DRIZZLE   37  36  93 S8        29.62F WCI  31
$$

...ELSEWHERE IN MINNESOTA...


CITY           SKY/WX    TMP DP  RH WIND       PRES   REMARKS
MINNEAPOLIS    DRZL/FOG  37  37 100 SE3       29.64F VSB 1
INTNL FALLS    CLOUDY    37  29  72 W12       29.59S WCI  29
DULUTH         CLOUDY    32  32 100 S10       29.61F FOG     WCI  24
RED WING       DRIZZLE   37  36  93 E3        29.64F
REDWOOD FALLS  PTSUNNY   47  35  63 NW8       29.60F
MANKATO        CLOUDY    39  36  89 S6        29.61F FOG     WCI  35
WORTHINGTON    CLOUDY    50  42  74 NW7       29.57S
FAIRMONT       CLOUDY    42  38  85 S10       29.59F
$$

...SOUTHWEST WISCONSIN...


CITY           SKY/WX    TMP DP  RH WIND       PRES   REMARKS
LA CROSSE      CLOUDY    39  36  89 S13       29.67F WCI  31
PRAIRIE DU CHI CLOUDY    37  36  94 SE7       29.72F FOG     WCI  32
BOSCOBEL       CLOUDY    38  35  89 S7        29.74F FOG     WCI  33
LONE ROCK      CLOUDY    37  34  89 SE15      29.76F FOG     WCI  28
PLATTEVILLE    CLOUDY    37  37  99 S17G23    29.75F WCI  27
FORT MC COY    CLOUDY    37  34  90 S6        29.72F WCI  32
CAMP DOUGLAS   CLOUDY    37  34  87 SE9       29.71F WCI  31
MAUSTON-NEW LI DRIZZLE   37  33  84 S14       29.72F WCI  28
VIROQUA        CLOUDY    35  35 100 SE15G21   29.68F WCI  25
WIS DELLS      CLOUDY    36  31  82 S16       29.76F WCI  26
$$

...ELSEWHERE IN WISCONSIN...


CITY           SKY/WX    TMP DP  RH WIND       PRES   REMARKS
MILWAUKEE      CLOUDY    41  34  76 S14G21    29.87F
MADISON        CLOUDY    38  30  73 S17G32    29.78F WCI  28
GREEN BAY      CLOUDY    41  35  79 S18G25    29.79F
EAU CLAIRE     NOT AVBL
BLACK RVR FLS  CLOUDY    37  33  85 S8        29.70F WCI  31
MEDFORD        CLOUDY    32  31  96 S12G18    29.66F FOG     WCI  23
WAUSAU         LGT RAIN  35  30  82 S15G22    29.70F WCI  25
WIS RAPIDS     CLOUDY    36  31  82 S10G18    29.72F WCI  28
MARSHFIELD     CLOUDY    34  31  88 S15       29.68F FOG     WCI  24
RICE LAKE      DRZL/FOG  34  33  99 SE6       29.68F VSB 1   WCI  29
$$

...NORTHEAST IOWA...


CITY           SKY/WX    TMP DP  RH WIND       PRES   REMARKS
WATERLOO       CLOUDY    39  37  92 SE15      29.63F FOG     WCI  31
DUBUQUE        CLOUDY    37  34  89 S15       29.72F FOG     WCI  28
DECORAH        FOG       36  36 100 S10G20    29.65F VSB 1/2 WCI  28
MASON CITY     FOG       38  38 100 S10       29.60F VSB 1/2 WCI  31
CHARLES CITY   MIX PCPN  37  37 100 SE14      29.62F VSB 3/4 WCI  29
OELWEIN        FOG       37  37 100 SE16G23   29.65F VSB 3/4 WCI  28
$$

...ELSEWHERE IN IOWA...


CITY           SKY/WX    TMP DP  RH WIND       PRES   REMARKS
DES MOINES     DRIZZLE   47  45  93 SE14      29.59F FOG
IOWA CITY      LGT RAIN  42  38  85 SE10      29.72F FOG
FORT DODGE     CLOUDY    48  44  86 S12       29.56F
MARSHALLTOWN   CLOUDY    42  41  96 S16       29.60F FOG
CEDAR RAPIDS   LGT RAIN  40  38  93 S12       29.68F FOG     WCI  33
$$

...NORTHERN ILLINOIS...


CITY           SKY/WX    TMP DP  RH WIND       PRES   REMARKS
CHICAGO-OHARE  CLOUDY    44  31  60 S18       29.88F
CHICAGO-MIDWAY NOT AVBL
MOLINE         CLOUDY    41  36  82 SE12G23   29.74F HAZE
ROCKFORD       LGT RAIN  37  33  85 S15       29.84F WCI  28
PEORIA         CLOUDY    40  37  89 S12G22    29.84F WCI  33
$$

NOTE: "FAIR" INDICATES FEW OR NO CLOUDS BELOW 12,000 FEET WITH NO
SIGNIFICANT WEATHER AND/OR OBSTRUCTIONS TO VISIBILITY. WIND
SPEEDS ARE IN MILES-PER-HOUR.




USA.gov is the U.S. government's official web portal to all federal, state and local government web resources and services.